Location: Lucerne Valley
(34.4439°N, 116.9669°E)
Time: 10:45:08
(UTC-07:00)

Tiangong 1 - Pass Details

Date: 08 October 2017
Orbit: 293 x 320 km, 42.8° (Epoch: 21 October)

Event Time Altitude Azimuth Distance (km) Brightness Sun altitude
Rises 03:54:09 0° 283° (WNW) 2,033 6.5 -14.6°
Reaches altitude 10° 03:56:36 10° 306° (NW) 1,198 4.4 -15.1°
Maximum altitude 03:58:25 16° 349° (N) 905 3.1 -15.5°
Enters shadow 03:59:22 14° 16° (NNE) 991 3.0 -15.7°
